Regional Weather Roundup
Issued by NWS

Home | Current Version | Previous Version | Graphics & Text | Print | Product List | Glossary Off
Versions: 1 2 3 4 5 6 7 8 9 10 11 12 13 14 15 16 17 18 19 20 21 22 23 24 25 26 27 28 29 30 31 32 33 34 35 36 37 38 39 40 41 42 43 44 45 46 47 48 49 50

000
ASUS43 KTOP 261359
RWRKS

WEATHER ROUNDUP FOR KANSAS
NATIONAL WEATHER SERVICE GOODLAND KS
900 AM CDT TUE JUL 26 2016

NOTE:  "FAIR" INDICATES FEW OR NO CLOUDS BELOW 12,000 FEET WITH NO
SIGNIFICANT WEATHER AND/OR OBSTRUCTIONS TO VISIBILITY.

KSZ001>006-013>018-027>032-041>047-261500-
NORTHWEST KANSAS

CITY           SKY/WX    TMP DP  RH WIND       PRES   REMARKS
GOODLAND       CLOUDY    70  66  87 S15       30.14S
HAYS           CLOUDY    70  63  78 S6        30.10F VSB 3/4
HILL CITY      CLOUDY    69  69 100 S7        30.12S FOG
RUSSELL        MOSUNNY   73  71  93 SE8       30.09S
$$

KSZ061>065-074>080-084>089-261500-
SOUTHWEST KANSAS

CITY           SKY/WX    TMP DP  RH WIND       PRES   REMARKS
DODGE CITY     FOG       69  69 100 CALM      30.12S VSB 3/4
ELKHART          N/A     69  66  90 SE8         N/A
GARDEN CITY    CLOUDY    71  69  93 S5        30.13R
GREAT BEND     CLOUDY    72  64  78 SE5       30.09S
LIBERAL        CLOUDY    73  66  78 CALM      30.13R
$$

KSZ066>073-081>083-090>101-261500-
SOUTHEAST KANSAS

CITY           SKY/WX    TMP DP  RH WIND       PRES   REMARKS
CHANUTE        CLOUDY    77  71  82 NE7       30.04R
COFFEYVILLE    CLOUDY    78  74  87 E5        30.02R
HUTCHINSON     PTSUNNY   76  72  87 NE3       30.07S
NEWTON         CLOUDY    74  73  97 E6        30.08R
PARSONS          N/A    N/A N/A N/A MISG      30.04R
WICHITA INTL   CLOUDY    77  73  87 NE8       30.05S
WICHITA JABRA  CLOUDY    74  73  97 NE7       30.05S
WINFIELD       CLOUDY    78  74  87 N8        30.04R
$$

KSZ007>012-019>026-033>040-048>060-102>105-261500-
NORTHEAST KANSAS

CITY           SKY/WX    TMP DP  RH WIND       PRES   REMARKS
CONCORDIA      SUNNY     71  66  84 E6        30.09S
EMPORIA        SUNNY     77  71  82 NE6       30.07R
LAWRENCE       SUNNY     77  71  82 E3        30.07S
MANHATTAN      SUNNY     74  68  81 E5        30.07F
OLATHE IND     SUNNY     78  69  73 E8        30.08S
OLATHE EXE     SUNNY     77  70  79 E8        30.08R
SALINA         SUNNY     77  69  76 NE5       30.07F
TOPEKA BILLARD SUNNY     76  69  79 E5        30.07S
TOPEKA FORBES  SUNNY     79  70  74 SE6       30.08R
$$




USA.gov is the U.S. government's official web portal to all federal, state and local government web resources and services.